EN

Hourly Weather Ladyzhyns'ke

Today, 24 July, Saturday

Time Temperature Precipitation Wind Pressure Humidity
00:00 +18°C° 0 mm 1 mps 742 mmHg 75%
01:00 +16°C° 0 mm 1 mps 743 mmHg 76%
02:00 +16°C° 0 mm 2 mps 743 mmHg 78%
03:00 +15°C° 0 mm 2 mps 743 mmHg 78%
04:00 +15°C° 0 mm 2 mps 743 mmHg 79%
05:00 +15°C° 0 mm 2 mps 743 mmHg 80%
06:00 +17°C° 0 mm 2 mps 743 mmHg 75%
07:00 +19°C° 0 mm 2 mps 743 mmHg 70%
08:00 +22°C° 0 mm 1 mps 743 mmHg 65%
09:00 +23°C° 0 mm 2 mps 743 mmHg 60%
10:00 +24°C° 0 mm 2 mps 743 mmHg 56%
11:00 +26°C° 0 mm 2 mps 743 mmHg 51%
12:00 +25°C° 0 mm 2 mps 743 mmHg 53%
13:00 +25°C° 0 mm 2 mps 743 mmHg 54%
14:00 +25°C° 0 mm 2 mps 743 mmHg 55%
15:00 +25°C° 0 mm 2 mps 743 mmHg 55%
16:00 +25°C° 0 mm 1 mps 743 mmHg 55%
17:00 +25°C° 0 mm 1 mps 744 mmHg 54%
18:00 +24°C° 0 mm 1 mps 744 mmHg 57%
19:00 +23°C° 0 mm 1 mps 744 mmHg 59%
20:00 +22°C° 0 mm 1 mps 744 mmHg 62%
21:00 +21°C° 0 mm 1 mps 744 mmHg 63%
22:00 +21°C° 0 mm 1 mps 744 mmHg 63%
23:00 +20°C° 0 mm 1 mps 744 mmHg 64%

Tomorrow, 25 July, Sunday

Time Temperature Precipitation Wind Pressure Humidity
00:00 +20°C° 0 mm 1 mps 744 mmHg 64%
01:00 +18°C° 0 mm 0 mps 744 mmHg 63%
02:00 +18°C° 0 mm 0 mps 744 mmHg 63%
03:00 +19°C° 0 mm 0 mps 745 mmHg 62%
04:00 +21°C° 0 mm 1 mps 745 mmHg 62%
05:00 +21°C° 0 mm 1 mps 745 mmHg 62%
06:00 +21°C° 0 mm 1 mps 745 mmHg 63%
07:00 +21°C° 0 mm 1 mps 745 mmHg 65%
08:00 +22°C° 0 mm 1 mps 745 mmHg 67%
09:00 +23°C° 0 mm 1 mps 745 mmHg 63%
10:00 +24°C° 0 mm 2 mps 746 mmHg 59%
11:00 +25°C° 0 mm 2 mps 746 mmHg 56%
12:00 +26°C° 0 mm 2 mps 746 mmHg 51%
13:00 +27°C° 0 mm 1 mps 746 mmHg 46%
14:00 +28°C° 0 mm 1 mps 746 mmHg 41%
15:00 +28°C° 0 mm 1 mps 745 mmHg 43%
16:00 +27°C° 0 mm 1 mps 745 mmHg 44%
17:00 +27°C° 0 mm 1 mps 745 mmHg 46%
18:00 +26°C° 0 mm 1 mps 745 mmHg 49%
19:00 +25°C° 0 mm 2 mps 745 mmHg 52%
20:00 +23°C° 0 mm 2 mps 746 mmHg 55%
21:00 +23°C° 0 mm 2 mps 746 mmHg 55%
22:00 +21°C° 0 mm 2 mps 746 mmHg 56%
23:00 +20°C° 0 mm 2 mps 746 mmHg 57%

Day after tomorrow, 26 July, Monday

Time Temperature Precipitation Wind Pressure Humidity
00:00 +20°C° 0 mm 2 mps 746 mmHg 59%
01:00 +19°C° 0 mm 2 mps 746 mmHg 61%
02:00 +19°C° 0 mm 2 mps 746 mmHg 64%
03:00 +19°C° 0 mm 2 mps 746 mmHg 63%
04:00 +19°C° 0 mm 2 mps 746 mmHg 61%
05:00 +20°C° 0 mm 2 mps 746 mmHg 60%
06:00 +20°C° 0 mm 2 mps 746 mmHg 63%
07:00 +21°C° 0 mm 2 mps 746 mmHg 65%
08:00 +21°C° 0 mm 2 mps 746 mmHg 67%
09:00 +24°C° 0 mm 2 mps 746 mmHg 63%
10:00 +25°C° 0 mm 3 mps 746 mmHg 58%
11:00 +27°C° 0 mm 3 mps 747 mmHg 54%
12:00 +28°C° 0 mm 3 mps 746 mmHg 50%
13:00 +29°C° 0 mm 3 mps 746 mmHg 46%
14:00 +30°C° 0 mm 3 mps 746 mmHg 42%
15:00 +29°C° 0 mm 3 mps 746 mmHg 45%
16:00 +29°C° 0 mm 2 mps 746 mmHg 47%
17:00 +29°C° 0 mm 2 mps 746 mmHg 50%
18:00 +27°C° 0 mm 3 mps 746 mmHg 53%
19:00 +26°C° 0 mm 3 mps 746 mmHg 56%
20:00 +24°C° 0 mm 3 mps 746 mmHg 58%
21:00 +22°C° 0 mm 3 mps 746 mmHg 60%
22:00 +21°C° 0 mm 3 mps 746 mmHg 63%
23:00 +20°C° 0 mm 3 mps 746 mmHg 65%

27 July, Tuesday

Time Temperature Precipitation Wind Pressure Humidity
00:00 +20°C° 0 mm 3 mps 746 mmHg 65%
01:00 +20°C° 0 mm 3 mps 746 mmHg 65%
02:00 +20°C° 0 mm 3 mps 746 mmHg 65%
03:00 +20°C° 0 mm 3 mps 746 mmHg 66%
04:00 +19°C° 0 mm 3 mps 745 mmHg 66%
05:00 +19°C° 0 mm 3 mps 745 mmHg 66%
06:00 +21°C° 0 mm 4 mps 745 mmHg 64%
07:00 +23°C° 0 mm 4 mps 745 mmHg 62%
08:00 +25°C° 0 mm 4 mps 745 mmHg 59%
09:00 +27°C° 0 mm 5 mps 746 mmHg 54%
10:00 +29°C° 0 mm 5 mps 746 mmHg 50%
11:00 +30°C° 0 mm 5 mps 746 mmHg 45%
12:00 +32°C° 0 mm 5 mps 746 mmHg 43%
13:00 +32°C° 0 mm 5 mps 745 mmHg 41%
14:00 +33°C° 0 mm 5 mps 745 mmHg 39%
15:00 +32°C° 0 mm 5 mps 745 mmHg 42%
16:00 +32°C° 0 mm 4 mps 745 mmHg 45%
17:00 +32°C° 0 mm 4 mps 745 mmHg 48%
18:00 +29°C° 0 mm 4 mps 744 mmHg 52%
19:00 +28°C° 0 mm 3 mps 744 mmHg 56%
20:00 +26°C° 0 mm 3 mps 744 mmHg 61%
21:00 +25°C° 0 mm 3 mps 744 mmHg 60%
22:00 +24°C° 0 mm 3 mps 744 mmHg 60%
23:00 +24°C° 0 mm 3 mps 744 mmHg 60%

28 July, Wednesday

Time Temperature Precipitation Wind Pressure Humidity
00:00 +22°C° 0 mm 3 mps 744 mmHg 60%
01:00 +22°C° 0 mm 3 mps 744 mmHg 60%
02:00 +22°C° 0 mm 3 mps 743 mmHg 59%
03:00 +21°C° 0 mm 4 mps 743 mmHg 61%
04:00 +21°C° 0 mm 4 mps 743 mmHg 62%
05:00 +20°C° 0 mm 4 mps 743 mmHg 64%
06:00 +21°C° 0.4 mm 4 mps 743 mmHg 67%
07:00 +22°C° 0.4 mm 4 mps 743 mmHg 70%
08:00 +22°C° 0.4 mm 4 mps 743 mmHg 73%
09:00 +23°C° 0.5 mm 5 mps 743 mmHg 71%
10:00 +24°C° 0.5 mm 6 mps 743 mmHg 69%
11:00 +26°C° 0.5 mm 7 mps 743 mmHg 66%
12:00 +28°C° 0 mm 7 mps 743 mmHg 61%
13:00 +30°C° 0 mm 7 mps 742 mmHg 55%
14:00 +33°C° 0 mm 7 mps 742 mmHg 49%
15:00 +33°C° 0 mm 6 mps 742 mmHg 51%
16:00 +32°C° 0 mm 6 mps 742 mmHg 52%
17:00 +32°C° 0 mm 5 mps 741 mmHg 54%
18:00 +29°C° 0.4 mm 4 mps 741 mmHg 60%
19:00 +26°C° 0.4 mm 4 mps 741 mmHg 66%
20:00 +22°C° 0.4 mm 3 mps 741 mmHg 72%
21:00 +21°C° 0 mm 3 mps 741 mmHg 75%
22:00 +21°C° 0 mm 4 mps 741 mmHg 78%
23:00 +20°C° 0 mm 4 mps 741 mmHg 81%

29 July, Thursday

Time Temperature Precipitation Wind Pressure Humidity
00:00 +20°C° 0 mm 4 mps 741 mmHg 83%
01:00 +20°C° 0 mm 4 mps 741 mmHg 86%
02:00 +19°C° 0 mm 4 mps 741 mmHg 89%
03:00 +19°C° 0 mm 4 mps 741 mmHg 91%
04:00 +19°C° 0 mm 4 mps 741 mmHg 94%
05:00 +18°C° 0 mm 4 mps 741 mmHg 96%
06:00 +20°C° 0 mm 4 mps 741 mmHg 90%
07:00 +21°C° 0 mm 4 mps 742 mmHg 84%
08:00 +23°C° 0 mm 5 mps 742 mmHg 77%
09:00 +25°C° 0 mm 5 mps 742 mmHg 72%
10:00 +26°C° 0 mm 5 mps 742 mmHg 66%
11:00 +28°C° 0 mm 5 mps 742 mmHg 61%
12:00 +28°C° 0 mm 5 mps 742 mmHg 59%
13:00 +28°C° 0 mm 5 mps 742 mmHg 58%
14:00 +29°C° 0 mm 4 mps 742 mmHg 56%
15:00 +28°C° 0 mm 4 mps 742 mmHg 59%
16:00 +28°C° 0 mm 4 mps 742 mmHg 61%
17:00 +27°C° 0 mm 3 mps 742 mmHg 63%
18:00 +26°C° 0 mm 3 mps 742 mmHg 66%
19:00 +25°C° 0 mm 2 mps 742 mmHg 69%
20:00 +24°C° 0 mm 2 mps 742 mmHg 72%
21:00 +23°C° 0 mm 2 mps 742 mmHg 73%
22:00 +22°C° 0 mm 1 mps 743 mmHg 74%
23:00 +22°C° 0 mm 1 mps 743 mmHg 74%
Show more